FW9368 Weather Reports


time (UTC)temp
C
wind
direction
speed
KPH
gust
KPH
rain 1hr
cm
rain 24hr
cm
rain mn
cm
humidity
%
barometer
mb
20260504195023 19 240 9.7 24.1 0.00 0.00 0.00 45 1009.8
20260504194536 20 203 8.0 29.0 0.00 0.00 0.00 45 1009.9
20260504194023 20 136 9.7 30.6 0.00 0.00 0.00 45 1009.9
20260504193523 20 208 9.7 30.6 0.00 0.00 0.00 45 1009.8
20260504193043 20 136 9.7 20.9 0.00 0.00 0.00 44 1009.9
20260504192522 20 201 11.3 35.4 0.00 0.00 0.00 45 1009.9
20260504192025 20 194 12.9 35.4 0.00 0.00 0.00 45 1009.8
20260504191604 20 167 11.3 24.1 0.00 0.00 0.00 45 1009.8
20260504191024 20 183 11.3 27.4 0.00 0.00 0.00 45 1009.9
20260504190524 20 275 8.0 27.4 0.00 0.00 0.00 44 1009.9
20260504190040 20 278 12.9 27.4 0.00 0.00 0.00 44 1009.9
20260504185523 20 267 9.7 30.6 0.00 0.00 0.00 44 1010.0
20260504185023 20 248 12.9 30.6 0.00 0.00 0.00 43 1010.1
20260504184549 20 269 9.7 25.7 0.00 0.00 0.00 44 1010.0
20260504184023 20 175 9.7 25.7 0.00 0.00 0.00 43 1010.2
20260504183522 20 178 9.7 32.2 0.00 0.00 0.00 44 1010.2
20260504183036 20 230 9.7 32.2 0.00 0.00 0.00 44 1010.3
20260504182527 20 259 9.7 22.5 0.00 0.00 0.00 43 1010.3
20260504182024 20 261 6.4 24.1 0.00 0.00 0.00 43 1010.4
20260504181535 20 265 6.4 24.1 0.00 0.00 0.00 43 1010.4
20260504181020 20 231 9.7 24.1 0.00 0.00 0.00 42 1010.4
20260504180524 20 148 8.0 20.9 0.00 0.00 0.00 41 1010.4
20260504180037 20 248 11.3 24.1 0.00 0.00 0.00 40 1010.7
20260504175523 20 144 8.0 24.1 0.00 0.00 0.00 39 1010.5
20260504175024 20 119 9.7 24.1 0.00 0.00 0.00 39 1010.6
20260504174539 20 162 11.3 38.6 0.00 0.00 0.00 37 1010.6
20260504174024 20 131 11.3 38.6 0.00 0.00 0.00 38 1010.7
20260504173523 20 223 8.0 24.1 0.00 0.00 0.00 37 1010.7
20260504173038 20 255 9.7 20.9 0.00 0.00 0.00 36 1010.7
20260504172523 20 176 9.7 20.9 0.00 0.00 0.00 36 1010.7
20260504172023 20 209 6.4 19.3 0.00 0.00 0.00 39 1010.7
20260504171541 20 223 4.8 20.9 0.00 0.00 0.00 38 1010.7
20260504171028 20 306 11.3 24.1 0.00 0.00 0.00 37 1010.7
20260504170523 20 173 9.7 24.1 0.00 0.00 0.00 38 1010.8
20260504151021 17 360 6.4 30.6 0.00 0.00 0.00 43 1012.4
20260504150526 17 360 4.8 30.6 0.00 0.00 0.00 43 1012.4
20260504141024 16 360 8.0 22.5 0.00 0.00 0.00 45 1012.8
20260504140522 15 360 8.0 22.5 0.00 0.00 0.00 46 1012.8
20260504130522 14 199 3.2 12.9 0.00 0.00 0.00 55 1013.2
20260504110520 2 0 0.0 0.0 0.00 0.00 0.00 92 1013.2
20260504100525 2 0 0.0 0.0 0.00 0.00 0.00 90 1013.1
20260504081538 2 0 0.0 0.0 0.00 0.00 0.00 88 1012.3
20260504081025 2 0 0.0 0.0 0.00 0.00 0.00 88 1012.2
20260504080522 2 0 0.0 0.0 0.00 0.00 0.00 87 1012.3
20260504050523 3 0 0.0 0.0 0.00 0.00 0.00 78 1011.9
20260504045522 3 0 0.0 1.6 0.00 0.00 0.00 78 1012.0
20260504045022 3 0 0.0 1.6 0.00 0.00 0.00 78 1011.9
20260504044538 3 0 0.0 1.6 0.00 0.00 0.00 77 1012.0
20260504044022 3 360 0.0 1.6 0.00 0.00 0.00 76 1012.0
20260504043531 4 0 0.0 3.2 0.00 0.00 0.00 76 1012.0
20260504043040 4 360 0.0 3.2 0.00 0.00 0.00 77 1012.1
20260504042523 4 0 0.0 1.6 0.00 0.00 0.00 76 1012.0
20260504042023 4 0 0.0 1.6 0.00 0.00 0.00 76 1012.0
20260504041538 4 0 0.0 1.6 0.00 0.00 0.00 76 1012.0
20260504041022 4 0 0.0 4.8 0.00 0.00 0.00 76 1011.8
20260504040523 4 0 0.0 4.8 0.00 0.00 0.00 75 1011.8
20260504040037 4 360 1.6 3.2 0.00 0.00 0.00 74 1011.9
20260504035525 5 0 0.0 1.6 0.00 0.00 0.00 74 1011.8
20260504035021 5 0 0.0 1.6 0.00 0.00 0.00 74 1011.8
20260504034535 5 0 0.0 1.6 0.00 0.00 0.00 73 1011.7
20260504034022 5 0 0.0 0.0 0.00 0.00 0.00 72 1011.8
20260504033523 5 0 0.0 0.0 0.00 0.00 0.00 72 1011.9
20260504033050 5 0 0.0 3.2 0.00 0.00 0.00 72 1011.7
20260504032524 5 0 0.0 3.2 0.00 0.00 0.00 71 1011.7
20260504032024 5 0 0.0 3.2 0.00 0.00 0.00 71 1011.7
20260504031545 5 360 0.0 1.6 0.00 0.00 0.00 70 1011.8
20260504031023 5 0 0.0 1.6 0.00 0.00 0.00 70 1011.7
20260504030523 6 0 0.0 1.6 0.00 0.00 0.00 69 1011.7
20260504030045 6 0 0.0 1.6 0.00 0.00 0.00 69 1011.7
20260504025524 6 0 0.0 1.6 0.00 0.00 0.00 68 1011.6
20260504025024 6 0 0.0 1.6 0.00 0.00 0.00 68 1011.6
20260504024542 6 360 0.0 3.2 0.00 0.00 0.00 67 1011.6
20260504024024 6 360 0.0 3.2 0.00 0.00 0.00 67 1011.7
20260504023524 6 360 0.0 3.2 0.00 0.00 0.00 66 1011.8
20260504023036 6 0 0.0 0.0 0.00 0.00 0.00 65 1011.8
20260504022528 6 0 0.0 0.0 0.00 0.00 0.00 65 1011.7
20260504022024 7 0 0.0 0.0 0.00 0.00 0.00 64 1011.6
20260504021539 7 0 0.0 0.0 0.00 0.00 0.00 61 1011.7
20260504021023 7 0 0.0 0.0 0.00 0.00 0.00 60 1011.6
20260504020525 7 0 0.0 0.0 0.00 0.00 0.00 61 1011.6
20260504020038 7 0 0.0 0.0 0.00 0.00 0.00 60 1011.6
20260504015525 7 0 0.0 0.0 0.00 0.00 0.00 57 1011.5
20260504015028 7 0 0.0 0.0 0.00 0.00 0.00 57 1011.5
20260504014540 8 0 0.0 0.0 0.00 0.00 0.00 56 1011.5
20260504014028 8 0 0.0 0.0 0.00 0.00 0.00 55 1011.4
20260504013524 8 0 0.0 0.0 0.00 0.00 0.00 56 1011.3
20260504013039 8 0 0.0 0.0 0.00 0.00 0.00 56 1011.2
20260504012524 8 0 0.0 0.0 0.00 0.00 0.00 56 1011.2
20260504012025 8 0 0.0 0.0 0.00 0.00 0.00 55 1011.1
20260504011535 8 0 0.0 0.0 0.00 0.00 0.00 53 1011.1
20260504011027 9 0 0.0 0.0 0.00 0.00 0.00 53 1011.1
20260504010523 9 0 0.0 0.0 0.00 0.00 0.00 52 1011.1
20260504010042 9 0 0.0 0.0 0.00 0.00 0.00 47 1011.0
20260504005524 10 0 0.0 0.0 0.00 0.00 0.00 47 1010.7
20260504005024 10 0 0.0 0.0 0.00 0.00 0.00 46 1010.8
20260504004540 10 0 0.0 0.0 0.00 0.00 0.00 45 1010.7
20260504004023 10 0 0.0 0.0 0.00 0.00 0.00 45 1010.6
20260504003523 10 0 0.0 1.6 0.00 0.00 0.00 44 1010.6
20260504003042 10 0 0.0 3.2 0.00 0.00 0.00 45 1010.6
20260504002527 11 0 0.0 3.2 0.00 0.00 0.00 46 1010.4
20260504002024 11 0 0.0 1.6 0.00 0.00 0.00 43 1010.4
20260504001537 11 0 0.0 1.6 0.00 0.00 0.00 41 1010.3
20260504001023 11 0 0.0 1.6 0.00 0.00 0.00 39 1010.0
20260504000522 11 0 0.0 1.6 0.00 0.00 0.00 38 1009.9
20260504000042 12 0 0.0 1.6 0.00 0.00 0.00 38 1010.0
20260503235523 12 0 0.0 1.6 0.00 0.00 0.00 38 1009.8
20260503235023 12 0 0.0 1.6 0.00 0.00 0.00 38 1009.7
20260503234535 12 0 0.0 1.6 0.00 0.00 0.00 37 1009.7
20260503234023 12 0 0.0 1.6 0.00 0.00 0.00 36 1009.7
20260503233525 12 0 0.0 6.4 0.00 0.00 0.00 36 1009.6
20260503233042 12 0 0.0 6.4 0.00 0.00 0.00 36 1009.5
20260503232523 12 36 0.0 8.0 0.00 0.00 0.00 36 1009.5
20260503232023 12 360 1.6 8.0 0.00 0.00 0.00 35 1009.5
20260503231538 12 360 1.6 6.4 0.00 0.00 0.00 35 1009.5
20260503231026 12 360 1.6 8.0 0.00 0.00 0.00 35 1009.4
20260503230525 13 360 1.6 8.0 0.00 0.00 0.00 35 1009.4
20260503230040 13 360 1.6 8.0 0.00 0.00 0.00 34 1009.4
20260503225521 13 0 1.6 12.9 0.00 0.00 0.00 34 1009.3
20260503225023 13 360 1.6 14.5 0.00 0.00 0.00 34 1009.4
20260503224536 13 360 4.8 17.7 0.00 0.00 0.00 34 1009.4
20260503224023 13 360 6.4 20.9 0.00 0.00 0.00 33 1009.4
20260503223523 13 360 6.4 20.9 0.00 0.00 0.00 34 1009.3
20260503223035 13 360 8.0 20.9 0.00 0.00 0.00 33 1009.2
20260503222524 13 0 4.8 20.9 0.00 0.00 0.00 34 1009.0
20260503222022 13 360 3.2 12.9 0.00 0.00 0.00 34 1009.0
20260503221542 13 360 3.2 16.1 0.00 0.00 0.00 34 1009.0
20260503221023 13 360 3.2 16.1 0.00 0.00 0.00 34 1009.0
20260503220524 13 360 6.4 14.5 0.00 0.00 0.00 34 1009.0
20260503220039 13 360 6.4 20.9 0.00 0.00 0.00 34 1009.1
20260503215523 13 360 4.8 20.9 0.00 0.00 0.00 33 1009.2
20260503215023 13 360 3.2 17.7 0.00 0.00 0.00 34 1009.1
20260503214538 13 304 4.8 17.7 0.00 0.00 0.00 34 1008.9
20260503214024 13 329 3.2 22.5 0.00 0.00 0.00 35 1009.1
20260503213524 13 360 4.8 22.5 0.00 0.00 0.00 35 1009.0
20260503213037 13 360 6.4 24.1 0.00 0.00 0.00 35 1008.9
20260503212522 13 302 6.4 24.1 0.00 0.00 0.00 34 1008.9
20260503212024 13 321 8.0 29.0 0.00 0.00 0.00 33 1009.0
20260503211535 13 42 8.0 29.0 0.00 0.00 0.00 34 1008.9
20260503211024 13 342 8.0 27.4 0.00 0.00 0.00 34 1009.2
20260503210523 13 349 4.8 27.4 0.00 0.00 0.00 34 1009.1
20260503210040 13 293 8.0 27.4 0.00 0.00 0.00 34 1009.1
20260503205524 13 320 6.4 29.0 0.00 0.00 0.00 35 1008.8
20260503205024 13 225 9.7 29.0 0.00 0.00 0.00 34 1008.8
20260503204538 13 360 9.7 30.6 0.00 0.00 0.00 34 1008.9
20260503204023 13 49 11.3 30.6 0.00 0.00 0.00 34 1008.9
20260503203530 13 334 4.8 19.3 0.00 0.00 0.00 36 1008.9
20260503203043 13 177 8.0 22.5 0.00 0.00 0.00 35 1008.9
20260503202523 13 348 9.7 22.5 0.00 0.00 0.00 35 1008.9
20260503202026 13 352 6.4 22.5 0.00 0.00 0.00 35 1008.9
20260503201537 13 11 8.0 22.5 0.00 0.00 0.00 35 1009.0
20260503201023 13 5 11.3 25.7 0.00 0.00 0.00 35 1009.0
20260503200525 13 28 8.0 25.7 0.00 0.00 0.00 35 1008.9
20260503200037 13 297 9.7 30.6 0.00 0.00 0.00 35 1009.0
20260503195523 13 5 4.8 30.6 0.00 0.00 0.00 35 1009.0